User: anonymous   Login
Location: Unspecified
(0.0000°N, 0.0000°E)
Time: 04:54:20
(UTC+01:00)
Language:

Delta 168 - Orbit

View from above orbital plane
View from above orbital plane
View from above satellite
View from above satellite

Ground track
Ground track

The orbit data is extracted from the following two-line orbital elements,

1 14051U 83041B   17049.82481217  .00002912  00000-0  26464-3 0  9990
2 14051  25.3302 216.3496 1098855 157.7070 207.5171 13.08042086562921
Epoch (UTC): 18 February 2017 19:47:43
Eccentricity: 0.1098855
inclination: 25.3302°
perigee height: 394 km
apogee height: 2067 km
right ascension of ascending node: 216.3496°
argument of perigee: 157.7070°
revolutions per day: 13.08042086
mean anomaly at epoch: 207.5171°
orbit number at epoch: 56292

The dashed part of the orbit path shows where the satellite is in the earth's shadow,  

DLR